Погода в Кулдиге

Латвия     56°58′05″N   21°58′15″E
темп.,
°C
ветер,
м/с
пор.,
м/с
влажн.,
%
обл.,
%
осадки,
мм/ч
давл.,
гПа
погр.,
м
27 сентября, пн
пн2700:00+7вюв227521 0.0 102623
03:00+7вюв227665 0.0 102730
06:00+6вюв248454 0.0 102768
09:00+8юв2680100 0.0 1028156
12:00+13вюв355576 0.0 1028679
15:00+15вюв344551 0.0 1027969
18:00+14вюв36585 0.0 1027476
21:00+8вюв310825 0.0 1027215
28 сентября, вт
вт2800:00+7вюв210905 0.0 1028228
03:00+6юв29955 0.0 1028193
06:00+6юв310960 0.0 1028233
09:00+7юв311841 0.0 1029333
12:00+13юв58580 0.0 1029889
15:00+15юв57490 0.0 10291277
18:00+14юв37590 0.0 1029766
21:00+8вюв38823 0.0 1030175
29 сентября, ср
ср2900:00+7юв278289 0.0 1031143
03:00+7юв278199 0.0 1031123
06:00+6юв278274 0.0 1031137
09:00+8юв39815 0.0 1031250
12:00+13юв485896 0.0 1031972
15:00+15юв5752100 0.0 10301613
18:00+13юв596725 0.0 1029955
21:00+9вюв3118399 0.0 1029384
30 сентября, чт
чт3000:00+10юв41174100 0.0 1029506
03:00+10юв4116996 0.0 1028638
06:00+9юв513764 0.0 1027572
09:00+9юв514713 0.0 1026652
12:00+13ююв6115755 0.0 1026873
15:00+13ююв51161100 0.0 10251123
18:00+9ю41089100 0.9 1025703
21:00+9ю3794100 1.2 1026333
1 октября, пт
пт100:00+9ю2597100 0.0 1027174
03:00+7ююв2598100 0.0 1027113
06:00+7ююв279812 0.0 1026158
09:00+8ю38952 0.0 1026245
12:00+13ю377231 0.0 1026764
15:00+15ю575085 0.0 10251459
18:00+13ю3856100 0.0 1025534
21:00+9ююв397668 0.0 1025207